Lexington Weather

Lexington, Massachusetts, USA

44°F
9/19/2020 8:18am 
  • Lexington Conditions: Clear
  • Temperature: 44.2°F / 6.8°CWarmer 1.4°F than last hour.
  • Dew Point: 35.8°FIncreased 0.7°Fsince last hour.
  • Relative Humidity: 72%Decreased 2.0% since last hour.
  • Wind: Wind from NNE NNE 1 mph, 10-min avg: Calm, gust: 2 mph
  • Barometer: 30.25 inRising 0.03  inHg/hr Rising Slowly
  • Visibility: 10 miles
  • Rain Today: 0.00 in
  •   
Southeast Middlesex County - Special Weather Statement
 - SEE ALL NEARBY ALERTS -

Regional Weather Roundup
for Boston / Norton, MA

        
000
ASUS41 KBOX 191204
RWRBOX

REGIONAL WEATHER ROUNDUP
NATIONAL WEATHER SERVICE BOSTON/NORTON MA
800 AM EDT SAT SEP 19 2020

NOTE:  "FAIR" INDICATES FEW OR NO CLOUDS BELOW 12,000 FEET WITH NO 
SIGNIFICANT WEATHER AND/OR OBSTRUCTIONS TO VISIBILITY.

MAZALL-191300-
EASTERN MASSACHUSETTS
  
CITY           SKY/WX    TMP DP  RH WIND       PRES   REMARKS
BOSTON         MOSUNNY   49  30  48 N13       30.28R                  
6HR MIN TEMP:  46; 6HR MAX TEMP:  50;                                

BEVERLY        SUNNY     48  33  56 N7        30.27R                  
LAWRENCE       SUNNY     46  33  60 NW6       30.30R                  
BEDFORD        SUNNY     47  31  53 N9        30.27R                  
BLUE HILL        N/A     45  31  58 N8        30.25R                  
NORWOOD        SUNNY     49  33  54 VRB3      30.28R                  
MARSHFIELD     SUNNY     54  41  62 N8        30.25R                  
PLYMOUTH       SUNNY     50  37  61 N9        30.24R                  
TAUNTON        SUNNY     49  33  54 NW6       30.26R                  
NEW BEDFORD    SUNNY     49  34  56 N7        30.24R                  
$$

MAZALL-191300-
CAPE COD AND THE ISLANDS
  
CITY           SKY/WX    TMP DP  RH WIND       PRES   REMARKS
FALMOUTH       SUNNY     54  37  54 N18       30.22R                  
HYANNIS        MOSUNNY   57  40  52 N14G21    30.20R                  
CHATHAM        MOSUNNY   57  39  51 N9        30.21R                  
PROVINCETOWN   MOSUNNY   56  39  53 NE21G28   30.23R                  
NANTUCKET      MOSUNNY   59  42  53 NE15G26   30.19R                  
MARTHAS VNYRD  MOSUNNY   57  41  55 N9G18     30.22R                  
$$
 
MAZALL-191300-
CENTRAL AND WESTERN MASSACHUSETTS
  
CITY           SKY/WX    TMP DP  RH WIND       PRES   REMARKS
WORCESTER      SUNNY     46  27  47 N10       30.28R                  
6HR MIN TEMP:  43; 6HR MAX TEMP:  46;                                

FITCHBURG      SUNNY     47  31  53 N3        30.30R                  
ORANGE         SUNNY     38  33  82 CALM      30.32R                  
SPRINGFIELD    SUNNY     42  34  73 N3        30.31R                  
WESTFIELD      SUNNY     41  35  79 CALM      30.32R                  
NORTH ADAMS    SUNNY     35  33  92 CALM      30.35R                  
PITTSFIELD     SUNNY     41  34  76 CALM      30.31R                  
$$
 
RIZALL-191300-
RHODE ISLAND
  
CITY           SKY/WX    TMP DP  RH WIND       PRES   REMARKS
PROVIDENCE     MOSUNNY   49  31  49 N12       30.27R                  
6HR MIN TEMP:  45; 6HR MAX TEMP:  51;                                

NEWPORT        SUNNY     50  32  50 N13G21    30.25R                  
BLOCK ISLAND   SUNNY     51  36  56 N13G23    30.25R                  
SMITHFIELD     SUNNY     46  31  55 N10       30.28R                  
WESTERLY       SUNNY     47  30  51 N12       30.27R                  
$$
 
CTZALL-191300-
CONNECTICUT
  
CITY           SKY/WX    TMP DP  RH WIND       PRES   REMARKS
BRADLEY INTL   MOSUNNY   44  32  62 N7        30.32R                  
6HR MIN TEMP:  37; 6HR MAX TEMP:  44;                                

HARTFORD       SUNNY     47  32  56 N8        30.31R                  
BRIDGEPORT     SUNNY     49  31  49 N15G21    30.30R                  
DANBURY        SUNNY     47  33  58 NE8       30.32R                  
GROTON         SUNNY     49  32  52 N15       30.26R                  
NEW HAVEN      SUNNY     49  33  54 N14G20    30.29R                  
CHESTER        NOT AVBL                                               
MERIDEN        SUNNY     47  31  53 N6        30.31R                  
WILLIMANTIC    SUNNY     46  32  58 N5        30.30R                  
OXFORD         SUNNY     43  33  68 N13       30.30R                  
$$

MEZ002-015-021-024-NHZ003-005-008-011-012-014-VTZ005-008-191300-
NORTHERN NEW ENGLAND
  
CITY           SKY/WX    TMP DP  RH WIND       PRES   REMARKS
PORTLAND ME    SUNNY     49  34  56 NW9       30.28R                  
6HR MIN TEMP:  44; 6HR MAX TEMP:  49;                                

BANGOR ME      SUNNY     42  31  64 NW6       30.25R                  
CONCORD NH     SUNNY     41  33  73 CALM      30.30R                  
MANCHESTER NH  SUNNY     46  30  53 N8        30.28R                  
NASHUA NH      SUNNY     44  32  62 NW7       30.30R                  
PORTSMOUTH NH  MOSUNNY   47  29  50 NW8       30.27R                  
JAFFREY NH     SUNNY     35  30  82 CALM      30.29R                  
KEENE NH       SUNNY     34  34 100 CALM      30.33R                  
BURLINGTON VT  PTSUNNY   36  33  89 CALM      30.36R                  
MT. WASHINGTON MOSUNNY   21  14  73 N31G39      N/A  WCI   3          
$$

NYZ052-076-191300-
EASTERN NEW YORK
  
CITY           SKY/WX    TMP DP  RH WIND       PRES   REMARKS
ALBANY         MOSUNNY   38  33  82 N3        30.36R                  
6HR MIN TEMP:  33; 6HR MAX TEMP:  39;                                

NEW YORK CITY  MOSUNNY   52  33  48 N12G21    30.31R                  
6HR MIN TEMP:  51; 6HR MAX TEMP:  56;                                

$$
 
ANZALL-191300-
MARINE OBSERVATIONS
  
STATION/POSITION TIME  TEMP    WIND        PRES    VSBY  WAVE
                       AIR SEA DIR/SP/G                  HT/PER
                 (UTC) (F)     (DEG/KT/KT) (MB)    (MI)  (FT/S)
BOSTON BUOY      1150   52 62  350/ 19/ 23 1023.3R         7/ 7
BUZZARDS BAY     1100          360/ 27/ 30 1023.4R
NANTUCKET SOUND  1150      68   20/ 19/ 25   N/A           3/ 4
MASS BAY-STELLWA 1104   54      30/ 17/ 21 1021.8R  1 3/4  8/ 6
ISLE OF SHOALS   1100   48     350/ 17/ 18 1023.7R
S OF BLOCK IS    1126      67                N/A           6/ 6
$$

......................KEY.........................
  SKY/WX - SKY CONDITION/PRESENT WEATHER
  TMP    - TEMPERATURE IN FAHRENHEIT
  DWPT   - DEWPOINT IN FAHRENHEIT
  RH     - RELATIVE HUMIDITY IN PERCENT
  WIND   - DIRECTION AND SPEED IN MPH
  PRES   - MEAN SEA LEVEL PRESSURE IN INCHES OF HG
  WCI    - WIND CHILL INDEX
  VSB    - VISIBILITY IN MILES
  HX     - HEAT INDEX
  TC     - TEMPERATURE IN CELSIUS
  VRB    - VARIABLE WIND DIRECTION
  N/A    - NOT AVAILABLE
  
      

Other recent Regional Weather Roundups

Sat Sep 19, 7:04am

Sat Sep 19, 6:04am

Sat Sep 19, 5:04am

Sat Sep 19, 4:04am

Sat Sep 19, 3:04am

Sat Sep 19, 2:04am

Sat Sep 19, 1:04am

Sat Sep 19, 12:04am

Fri Sep 18, 11:05pm

Fri Sep 18, 10:04pm

Fri Sep 18, 9:04pm

Fri Sep 18, 8:04pm

Fri Sep 18, 7:04pm

Fri Sep 18, 6:04pm

Fri Sep 18, 5:05pm

Fri Sep 18, 4:04pm

Fri Sep 18, 3:05pm

Fri Sep 18, 2:04pm

Fri Sep 18, 1:04pm

Fri Sep 18, 12:04pm

Fri Sep 18, 11:05am

Fri Sep 18, 10:05am

Fri Sep 18, 9:04am

Fri Sep 18, 8:04am

Fri Sep 18, 7:04am

Fri Sep 18, 6:04am

Fri Sep 18, 5:04am

Fri Sep 18, 4:04am

Fri Sep 18, 3:04am

Fri Sep 18, 2:04am

Fri Sep 18, 1:04am

Fri Sep 18, 12:04am

Thu Sep 17, 11:05pm

Thu Sep 17, 10:04pm

Thu Sep 17, 9:04pm

Thu Sep 17, 8:05pm

Thu Sep 17, 7:04pm

Thu Sep 17, 6:04pm

Thu Sep 17, 5:04pm

Thu Sep 17, 4:04pm

Thu Sep 17, 3:05pm

Thu Sep 17, 2:04pm

Thu Sep 17, 1:04pm

Thu Sep 17, 12:04pm

Thu Sep 17, 11:04am

Thu Sep 17, 10:04am

Thu Sep 17, 9:04am

Thu Sep 17, 8:04am

Thu Sep 17, 7:04am

Thu Sep 17, 6:04am

Thu Sep 17, 5:04am

Thu Sep 17, 4:04am

Thu Sep 17, 3:04am

Thu Sep 17, 2:05am

Thu Sep 17, 1:05am

Thu Sep 17, 12:04am

Wed Sep 16, 11:04pm

Wed Sep 16, 10:04pm

Wed Sep 16, 9:04pm

Wed Sep 16, 8:05pm

Wed Sep 16, 7:04pm

Wed Sep 16, 6:04pm

Wed Sep 16, 5:04pm

Wed Sep 16, 4:04pm

Wed Sep 16, 3:04pm

Wed Sep 16, 2:04pm

Wed Sep 16, 1:04pm

Wed Sep 16, 12:04pm

Wed Sep 16, 11:04am

Wed Sep 16, 10:04am

Wed Sep 16, 9:04am

Wed Sep 16, 8:04am

Wed Sep 16, 7:04am

Wed Sep 16, 6:04am

Wed Sep 16, 5:04am

Wed Sep 16, 4:04am

Wed Sep 16, 3:04am

Wed Sep 16, 2:04am

Wed Sep 16, 1:04am

Wed Sep 16, 12:05am

Tue Sep 15, 11:04pm

Tue Sep 15, 10:04pm

Tue Sep 15, 9:04pm

Tue Sep 15, 8:04pm

Tue Sep 15, 7:04pm

Tue Sep 15, 6:04pm

Tue Sep 15, 5:04pm

Tue Sep 15, 4:05pm

Tue Sep 15, 3:04pm

Tue Sep 15, 2:04pm

Tue Sep 15, 1:04pm

Tue Sep 15, 12:04pm

Tue Sep 15, 11:04am

Tue Sep 15, 10:04am

Tue Sep 15, 9:04am

Tue Sep 15, 8:04am

Tue Sep 15, 7:04am

Tue Sep 15, 6:04am

Tue Sep 15, 5:04am

Tue Sep 15, 4:04am

Tue Sep 15, 3:04am

Tue Sep 15, 2:04am

Tue Sep 15, 1:04am

Tue Sep 15, 12:05am

Mon Sep 14, 11:04pm

Mon Sep 14, 10:04pm

Mon Sep 14, 9:04pm

Mon Sep 14, 8:04pm

Mon Sep 14, 7:04pm

Mon Sep 14, 6:04pm

Mon Sep 14, 5:04pm

Mon Sep 14, 4:05pm

Mon Sep 14, 3:04pm

Mon Sep 14, 2:05pm

Mon Sep 14, 1:04pm

Mon Sep 14, 12:04pm

Mon Sep 14, 11:04am

Mon Sep 14, 10:05am

Mon Sep 14, 9:04am

Mon Sep 14, 8:04am

Mon Sep 14, 7:04am

Mon Sep 14, 6:04am

Mon Sep 14, 5:04am

Mon Sep 14, 4:04am

Mon Sep 14, 3:04am

Mon Sep 14, 2:04am

Mon Sep 14, 1:04am

Mon Sep 14, 12:04am

Sun Sep 13, 11:05pm

Sun Sep 13, 10:04pm

Sun Sep 13, 9:04pm

Sun Sep 13, 8:04pm

Sun Sep 13, 7:05pm

Sun Sep 13, 6:05pm

Sun Sep 13, 5:05pm

Sun Sep 13, 4:04pm

Sun Sep 13, 3:04pm

Sun Sep 13, 2:04pm

Sun Sep 13, 1:04pm

Sun Sep 13, 12:04pm

Sun Sep 13, 11:05am

Sun Sep 13, 10:04am

Sun Sep 13, 9:04am

Sun Sep 13, 8:04am

Sun Sep 13, 7:04am

Sun Sep 13, 6:04am

Sun Sep 13, 5:04am

Sun Sep 13, 4:04am

Sun Sep 13, 3:04am

Sun Sep 13, 2:04am

Sun Sep 13, 1:04am

Sun Sep 13, 12:04am

Sat Sep 12, 11:04pm

Sat Sep 12, 10:04pm

Sat Sep 12, 9:04pm

Sat Sep 12, 8:04pm

Sat Sep 12, 7:05pm

Sat Sep 12, 6:04pm

Sat Sep 12, 5:04pm

Sat Sep 12, 4:05pm

Sat Sep 12, 3:04pm

Sat Sep 12, 2:04pm

Sat Sep 12, 1:05pm

Sat Sep 12, 12:04pm

Sat Sep 12, 11:04am

Sat Sep 12, 10:04am

Sat Sep 12, 9:04am

Meta data:

ID: c3e9707d-5a1c-4d5a-ba81-3b9086a845b9
Link: https://api.weather.gov/products/c3e9707d-5a1c-4d5a-ba81-3b9086a845b9